• In Hungary
  • List of Countries
  • For 7 days
  • Water Temperature
  • Satellite Maps
  • Weather Map
  • News
  • Weather Widgets
  • user-avatar
    Login

    Hourly Weather Mostki

    Today, 25 November, Saturday

    Time Temperature Precipitation Wind Pressure Humidity
    00:00 +6°C° 0 mm 2 mps 735 mmHg 87%
    01:00 +6°C° 0 mm 2 mps 735 mmHg 87%
    02:00 +6°C° 0 mm 2 mps 735 mmHg 88%
    03:00 +6°C° 0 mm 2 mps 735 mmHg 89%
    04:00 +6°C° 0 mm 2 mps 735 mmHg 90%
    05:00 +5°C° 0 mm 3 mps 734 mmHg 91%
    06:00 +5°C° 0 mm 3 mps 734 mmHg 91%
    07:00 +5°C° 0 mm 3 mps 733 mmHg 91%
    08:00 +7°C° 0 mm 3 mps 733 mmHg 87%
    09:00 +7°C° 0 mm 4 mps 733 mmHg 82%
    10:00 +8°C° 0 mm 4 mps 732 mmHg 78%
    11:00 +8°C° 0 mm 5 mps 732 mmHg 77%
    12:00 +8°C° 0 mm 5 mps 731 mmHg 75%
    13:00 +8°C° 0 mm 6 mps 730 mmHg 74%
    14:00 +8°C° 0 mm 5 mps 730 mmHg 76%
    15:00 +7°C° 0 mm 5 mps 730 mmHg 78%
    16:00 +7°C° 0 mm 5 mps 729 mmHg 80%
    17:00 +7°C° 0.1 mm 5 mps 729 mmHg 81%
    18:00 +7°C° 0.1 mm 4 mps 729 mmHg 82%
    19:00 +7°C° 0.1 mm 4 mps 729 mmHg 83%
    20:00 +7°C° 0.1 mm 4 mps 729 mmHg 84%
    21:00 +7°C° 0.1 mm 4 mps 729 mmHg 85%
    22:00 +8°C° 0.1 mm 3 mps 729 mmHg 85%
    23:00 +7°C° 0 mm 3 mps 729 mmHg 87%

    Tomorrow, 26 November, Sunday

    Time Temperature Precipitation Wind Pressure Humidity
    00:00 +7°C° 0 mm 2 mps 730 mmHg 88%
    01:00 +7°C° 0 mm 2 mps 730 mmHg 90%
    02:00 +7°C° 0.2 mm 2 mps 730 mmHg 90%
    03:00 +6°C° 0.2 mm 2 mps 730 mmHg 91%
    04:00 +6°C° 0.2 mm 2 mps 731 mmHg 91%
    05:00 +6°C° 1.2 mm 2 mps 731 mmHg 91%
    06:00 +5°C° 1.2 mm 2 mps 732 mmHg 90%
    07:00 +4°C° 1.2 mm 3 mps 732 mmHg 90%
    08:00 +4°C° 0.7 mm 3 mps 733 mmHg 88%
    09:00 +4°C° 0.7 mm 3 mps 733 mmHg 87%
    10:00 +3°C° 0.7 mm 3 mps 734 mmHg 86%
    11:00 +3°C° 0.5 mm 3 mps 734 mmHg 86%
    12:00 +3°C° 0.5 mm 3 mps 734 mmHg 85%
    13:00 +3°C° 0.5 mm 3 mps 734 mmHg 85%
    14:00 +3°C° 0.4 mm 3 mps 734 mmHg 85%
    15:00 +2°C° 0.4 mm 3 mps 735 mmHg 85%
    16:00 +2°C° 0.4 mm 3 mps 735 mmHg 86%
    17:00 +2°C° 0.1 mm 3 mps 735 mmHg 86%
    18:00 +2°C° 0.1 mm 3 mps 736 mmHg 86%
    19:00 +1°C° 0.1 mm 3 mps 736 mmHg 87%
    20:00 +1°C° 0 mm 3 mps 736 mmHg 87%
    21:00 +1°C° 0 mm 3 mps 737 mmHg 87%
    22:00 +1°C° 0 mm 3 mps 737 mmHg 88%
    23:00 0°C° 0 mm 3 mps 737 mmHg 89%

    Day after tomorrow, 27 November, Monday

    Time Temperature Precipitation Wind Pressure Humidity
    00:00 0°C° 0 mm 3 mps 737 mmHg 89%
    01:00 -1°C° 0 mm 3 mps 738 mmHg 90%
    02:00 -1°C° 0 mm 3 mps 738 mmHg 90%
    03:00 -1°C° 0 mm 3 mps 738 mmHg 89%
    04:00 -1°C° 0 mm 3 mps 738 mmHg 89%
    05:00 -1°C° 0 mm 3 mps 738 mmHg 89%
    06:00 -2°C° 0 mm 2 mps 738 mmHg 90%
    07:00 -2°C° 0 mm 2 mps 739 mmHg 90%
    08:00 -1°C° 0 mm 2 mps 739 mmHg 85%
    09:00 0°C° 0 mm 3 mps 739 mmHg 80%
    10:00 +1°C° 0 mm 3 mps 739 mmHg 75%
    11:00 +1°C° 0 mm 3 mps 739 mmHg 74%
    12:00 +2°C° 0 mm 3 mps 739 mmHg 72%
    13:00 +2°C° 0 mm 3 mps 739 mmHg 70%
    14:00 +2°C° 0 mm 3 mps 739 mmHg 75%
    15:00 +2°C° 0 mm 2 mps 739 mmHg 80%
    16:00 +1°C° 0 mm 2 mps 739 mmHg 85%
    17:00 +1°C° 0 mm 2 mps 739 mmHg 87%
    18:00 +1°C° 0 mm 1 mps 739 mmHg 88%
    19:00 +1°C° 0 mm 1 mps 739 mmHg 89%
    20:00 +1°C° 0 mm 1 mps 739 mmHg 89%
    21:00 +1°C° 0 mm 1 mps 739 mmHg 89%
    22:00 0°C° 0 mm 1 mps 739 mmHg 89%
    23:00 0°C° 0 mm 1 mps 738 mmHg 89%

    28 November, Tuesday

    Time Temperature Precipitation Wind Pressure Humidity
    00:00 0°C° 0 mm 1 mps 738 mmHg 89%
    01:00 0°C° 0 mm 1 mps 738 mmHg 90%
    02:00 0°C° 0 mm 1 mps 737 mmHg 89%
    03:00 -1°C° 0 mm 1 mps 737 mmHg 89%
    04:00 -1°C° 0 mm 1 mps 737 mmHg 89%
    05:00 -1°C° 0 mm 1 mps 737 mmHg 89%
    06:00 -1°C° 0 mm 1 mps 736 mmHg 88%
    07:00 -1°C° 0 mm 1 mps 736 mmHg 87%
    08:00 +1°C° 0 mm 1 mps 736 mmHg 82%
    09:00 +2°C° 0 mm 1 mps 736 mmHg 76%
    10:00 +3°C° 0 mm 1 mps 736 mmHg 70%
    11:00 +4°C° 0 mm 1 mps 735 mmHg 67%
    12:00 +5°C° 0 mm 1 mps 735 mmHg 64%
    13:00 +5°C° 0 mm 1 mps 734 mmHg 61%
    14:00 +4°C° 0 mm 1 mps 734 mmHg 67%
    15:00 +3°C° 0 mm 1 mps 733 mmHg 74%
    16:00 +1°C° 0 mm 1 mps 733 mmHg 80%
    17:00 +1°C° 0 mm 1 mps 733 mmHg 81%
    18:00 -1°C° 0 mm 2 mps 732 mmHg 82%
    19:00 -2°C° 0 mm 2 mps 732 mmHg 83%
    20:00 -2°C° 0 mm 2 mps 732 mmHg 82%
    21:00 -2°C° 0 mm 2 mps 732 mmHg 80%
    22:00 -2°C° 0 mm 2 mps 731 mmHg 79%
    23:00 -2°C° 0 mm 2 mps 731 mmHg 78%

    29 November, Wednesday

    Time Temperature Precipitation Wind Pressure Humidity
    00:00 -2°C° 0 mm 2 mps 731 mmHg 77%
    01:00 -2°C° 0 mm 2 mps 731 mmHg 76%
    02:00 -2°C° 0 mm 2 mps 730 mmHg 75%
    03:00 -2°C° 0 mm 2 mps 730 mmHg 74%
    04:00 -2°C° 0 mm 2 mps 730 mmHg 73%
    05:00 -2°C° 0 mm 2 mps 729 mmHg 73%
    06:00 -2°C° 0 mm 2 mps 729 mmHg 73%
    07:00 -2°C° 0 mm 2 mps 729 mmHg 72%
    08:00 -1°C° 0 mm 3 mps 729 mmHg 69%
    09:00 0°C° 0 mm 3 mps 729 mmHg 65%
    10:00 +1°C° 0 mm 3 mps 729 mmHg 61%
    11:00 +1°C° 0 mm 3 mps 729 mmHg 61%
    12:00 +2°C° 0 mm 3 mps 728 mmHg 61%
    13:00 +2°C° 0 mm 3 mps 728 mmHg 60%
    14:00 +1°C° 0 mm 3 mps 728 mmHg 67%
    15:00 0°C° 0 mm 3 mps 728 mmHg 73%
    16:00 -1°C° 0 mm 3 mps 728 mmHg 79%
    17:00 -1°C° 0 mm 3 mps 728 mmHg 81%
    18:00 -2°C° 0 mm 3 mps 728 mmHg 84%
    19:00 -2°C° 0 mm 2 mps 728 mmHg 87%
    20:00 -2°C° 0 mm 2 mps 728 mmHg 87%
    21:00 -2°C° 0 mm 2 mps 728 mmHg 87%
    22:00 -2°C° 0 mm 2 mps 729 mmHg 86%
    23:00 -1°C° 0.1 mm 2 mps 728 mmHg 86%

    30 November, Thursday

    Time Temperature Precipitation Wind Pressure Humidity
    00:00 -1°C° 0.1 mm 2 mps 728 mmHg 86%
    01:00 +1°C° 0.1 mm 2 mps 728 mmHg 86%
    02:00 +1°C° 0.2 mm 2 mps 727 mmHg 87%
    03:00 +1°C° 0.2 mm 2 mps 727 mmHg 88%
    04:00 +1°C° 0.2 mm 2 mps 726 mmHg 89%
    05:00 +1°C° 0 mm 2 mps 726 mmHg 87%
    06:00 +1°C° 0 mm 2 mps 725 mmHg 85%
    07:00 +1°C° 0 mm 2 mps 725 mmHg 83%
    08:00 +2°C° 0.2 mm 2 mps 724 mmHg 83%
    09:00 +2°C° 0.2 mm 2 mps 724 mmHg 83%
    10:00 +3°C° 0.2 mm 2 mps 723 mmHg 82%
    11:00 +3°C° 0.5 mm 2 mps 722 mmHg 84%
    12:00 +3°C° 0.5 mm 2 mps 721 mmHg 86%
    13:00 +3°C° 0.5 mm 2 mps 721 mmHg 88%
    14:00 +3°C° 0.2 mm 2 mps 720 mmHg 90%
    15:00 +2°C° 0.2 mm 2 mps 720 mmHg 91%
    16:00 +2°C° 0.2 mm 2 mps 720 mmHg 93%
    17:00 +2°C° 0.4 mm 2 mps 720 mmHg 93%
    18:00 +2°C° 0.4 mm 2 mps 720 mmHg 94%
    19:00 +2°C° 0.4 mm 2 mps 720 mmHg 95%
    20:00 +1°C° 0.4 mm 3 mps 721 mmHg 94%
    21:00 0°C° 0.4 mm 3 mps 721 mmHg 92%
    22:00 0°C° 0.4 mm 3 mps 722 mmHg 91%
    23:00 0°C° 0.1 mm 3 mps 722 mmHg 91%
    Show more